Regional Weather Roundup
Issued by NWS

Home | Current Version | Previous Version | Text Only | Print | Product List | Glossary Off
Versions: 1 2 3 4 5 6 7 8 9 10 11 12 13 14 15 16 17 18 19 20 21 22 23 24 25 26 27 28 29 30 31 32 33 34 35 36 37 38 39 40 41 42 43 44 45 46 47 48 49 50

000
ASUS43 KOAX 210102
RWRNE

WEATHER ROUNDUP FOR NEBRASKA
NATIONAL WEATHER SERVICE OMAHA NE
800 PM CDT SUN APR 20 2014

NOTES: SATELLITE DATA IS BEING USED TO AUGMENT CLOUD COVER ABOVE
       12000 FEET.
       "FAIR" INDICATES FEW OR NO CLOUDS BELOW 12,000 FEET WITH NO
       SIGNIFICANT WEATHER AND/OR OBSTRUCTIONS TO VISIBILITY.

  * THESE STATIONS DO NOT REPORT WEATHER SUCH AS RAIN...SNOW OR FOG.

NEZ001>004-019>022-054>056-210200-
NEBRASKA PANHANDLE

CITY           SKY/WX    TMP DP  RH WIND       PRES   REMARKS
SCOTTSBLUFF    PTCLDY    72  26  18 N18G28    29.96R
ALLIANCE       MOCLDY    69  31  24 N16       29.95R
CHADRON        PTCLDY    65  36  34 N13       29.98R
KIMBALL        PTCLDY    66  24  20 N7        29.99S
SIDNEY         PTCLDY    71  32  23 N7        29.97R
$$

NEZ057>060-069>072-079>082-210200-
SOUTHWEST NEBRASKA

CITY           SKY/WX    TMP DP  RH WIND       PRES   REMARKS
NORTH PLATTE   PTCLDY    72  49  44 CALM      29.89S
IMPERIAL       PTCLDY    71  47  42 E3        29.91S
LEXINGTON      CLOUDY    71  54  54 S7        29.90S
MCCOOK         CLOUDY    68  52  56 SE5       29.91R
OGALLALA       CLEAR     71  42  35 S3        29.91S
$$

NEZ005>010-023>029-035>040-094-210200-
NORTH CENTRAL NEBRASKA

CITY           SKY/WX    TMP DP  RH WIND       PRES   REMARKS
VALENTINE      PTCLDY    70  48  45 S8        29.86R
AINSWORTH      MOCLDY    70  45  40 S5        29.86S
BROKEN BOW     PTCLDY    71  51  49 S9        29.89S
O`NEILL        PTCLDY    74  44  34 SW6       29.87S
ORD            MOCLDY    73  49  42 S9        29.87S
THEDFORD       PTCLDY    74  45  36 S6        29.89S
$$

NEZ041-046>049-061>064-073>077-083>087-210200-
SOUTH CENTRAL NEBRASKA

CITY           SKY/WX    TMP DP  RH WIND       PRES   REMARKS
GRAND ISLAND   CLOUDY    71  53  52 S10       29.91R
AURORA         CLOUDY    71  55  58 S9        29.91R
HASTINGS       CLOUDY    70  49  47 S9        29.91R
HEBRON         CLOUDY    70  53  54 S10G17    29.94R
HOLDREGE       CLOUDY    67  52  59 S10       29.91R
KEARNEY *      CLOUDY    70  52  52 S13       29.91R
YORK           CLOUDY    66  59  77 S8        29.92S
$$

NEZ011>018-030>034-042>045-210200-
NORTHEAST NEBRASKA

CITY           SKY/WX    TMP DP  RH WIND       PRES   REMARKS
NORFOLK        CLOUDY    70  54  56 S16       29.87F
ALBION         CLOUDY    73  49  43 S7        29.89S
BLAIR          LGT RAIN  65  55  68 SW10      29.93S
COLUMBUS *     CLOUDY    66  52  59 S12       29.91F
FREMONT        CLOUDY    64  55  73 SE6       29.92F
$$

NEZ050>053-065>068-078-088>093-210200-
SOUTHEAST NEBRASKA

CITY           SKY/WX    TMP DP  RH WIND       PRES   REMARKS
LINCOLN        CLOUDY    63  59  87 SE5       29.95R
OMAHA EPPLEY   LGT RAIN  66  57  72 S12       29.94S
BEATRICE       PTCLDY    69  54  58 S12G17    29.95R
NEBRASKA CITY  MOCLDY    64  58  83 CALM      29.96R
PLATTSMOUTH    CLOUDY    65  56  75 E3        29.96S
$$

NEZ044-045-051>053-067-210200-
OMAHA AREA

CITY           SKY/WX    TMP DP  RH WIND       PRES   REMARKS
OMAHA EPPLEY   LGT RAIN  66  57  72 S12       29.94S
BLAIR          LGT RAIN  65  55  68 SW10      29.93S
FREMONT        CLOUDY    64  55  73 SE6       29.92F
MILLARD        RAIN      63  57  82 SE8       29.94R
OFFUTT AFB     LGT RAIN  63  62  99 E6        29.95S
PLATTSMOUTH    CLOUDY    65  56  75 E3        29.96S
WAHOO          LGT RAIN  62  56  83 SE6       29.92F
$$



USA.gov is the U.S. government's official web portal to all federal, state and local government web resources and services.